Location: Newark
(47.5833°N, 8.1500°E)
Time: 09:39:37
(UTC+00:00)

Tiros 1 despin weight - Pass Details

Date: 29 October 2020
Orbit: 593 x 642 km, 48.2° (Epoch: 26 November)

Event Time Altitude Azimuth Distance (km) Brightness Sun altitude
Rises 23:00:03 0° 219° (SW) 2,869 - -56.2°
Reaches altitude 10° 23:02:32 10° 210° (SSW) 1,958 - -56.2°
Maximum altitude 23:06:31 32° 147° (SSE) 1,051 - -56.3°
Drops below altitude 10° 23:10:28 10° 85° (E) 1,942 - -56.3°
Sets 23:12:55 0° 75° (ENE) 2,841 - -56.3°
